Regional Weather Roundup
Issued by NWS Green Bay, WI

Home | Current Version | Previous Version | Graphics & Text | Print | Product List | Glossary Off
Versions: 1 2 3 4 5 6 7 8 9 10 11 12 13 14 15 16 17 18 19 20 21 22 23 24 25 26 27 28 29 30 31 32 33 34 35 36 37 38 39 40 41 42 43 44 45 46 47 48 49 50

000
ASUS43 KGRB 271800
RWRGRB

NORTH-CENTRAL AND NORTHEAST WISCONSIN REGIONAL WEATHER ROUNDUP
NATIONAL WEATHER SERVICE GREEN BAY WI
100 PM CDT THU AUG 27 2015

WIZ005-009-010>012-018-019-271900-
NORTH CENTRAL WISCONSIN

CITY           SKY/WX    TMP DP  RH WIND       PRES   REMARKS
IRONWOOD       SUNNY     72  52  49 SW5       30.06F
MANITOWISH WTR NOT AVBL
ARBOR VITAE    NOT AVBL
EAGLE RIVER    NOT AVBL
LAND O LAKES   NOT AVBL
RHINELANDER    SUNNY     70  53  54 VRB5      30.14F
PHILLIPS       NOT AVBL
ANTIGO         NOT AVBL
TOMAHAWK       NOT AVBL
MERRILL        NOT AVBL
$$

WIZ013-073-271900-
NORTHEAST WISCONSIN

CITY           SKY/WX    TMP DP  RH WIND       PRES   REMARKS
IRON MOUNTAIN  SUNNY     67  55  65 VRB5      30.12F
MARINETTE      SUNNY     64  55  72 SE8       30.14F
$$

WIZ017-030-035>037-045-271900-
CENTRAL WISCONSIN

CITY           SKY/WX    TMP DP  RH WIND       PRES   REMARKS
MEDFORD        NOT AVBL
WAUSAU         MOSUNNY   72  55  55 VRB6      30.13F
MOSINEE        MOSUNNY   72  55  56 SW7       30.16S
MARSHFIELD     MOSUNNY   73  53  49 W6        30.14F
WISC RAPIDS    SUNNY     73  52  47 S9        30.16F
STEVENS POINT  NOT AVBL
WAUPACA        NOT AVBL
SHAWANO        NOT AVBL
CLINTONVILLE   NOT AVBL
WAUTOMA        NOT AVBL
$$

WIZ038-039-048-051-271900-
FOX VALLEY

CITY           SKY/WX    TMP DP  RH WIND       PRES   REMARKS
NWS GREEN BAY  MOSUNNY   73  58  59 VRB7      30.15F
APPLETON       PTSUNNY   72  52  49 SW7       30.15S
OSHKOSH        MOSUNNY   72  57  59 VRB5      30.15F
FOND DU LAC    MOSUNNY   72  54  53 SW9       30.16F
$$

WIZ022-050-052-271900-
EAST CENTRAL WISCONSIN

CITY           SKY/WX    TMP DP  RH WIND       PRES   REMARKS
EPHRAIM        NOT AVBL
STURGEON BAY   SUNNY     66  57  72 N5        30.17F
MANITOWOC      NOT AVBL
SHEBOYGAN      MOSUNNY   71  60  68 S9        30.16F
$$

LMZ563-521-522-541>543-271900-
LAKESHORE

STATION/POSITION TIME  TEMP    WIND        PRES    VSBY  WAVE
                       AIR SEA DIR/SP/G                  HT/PER
                 (UTC) (F)     (DEG/KT/KT) (MB)    (MI)  (FT/S)
SHEBOYGAN LKSHOR 1700   61     180/ 18/ 18 1022.0F
KEWAUNEE LKSHORE 1700   53     160/  7/  8 1020.4F
NORTHPORT PIER   1700   59     140/  6/  8 1021.0S
N MID LAKE BUOY  1650   61 64   80/  6/  8 1021.2F         0
S GREEN BAY BUOY 1700   55     280/  4/  4 1022.8F
SISTER BAY LKSHO 1719   73        CALM       N/A
CHAMBERS ISLAND  1700   63     250/  3/  7 1021.3F
MENOMINEE LKSHOR 1700   58     130/  7/  7 1020.0F
$$


USA.gov is the U.S. government's official web portal to all federal, state and local government web resources and services.